| time (UTC) | temp F | wind direction | speed knots | gust knots | rain 1hr in | rain 24hr in | rain mn in | humidity % | barometer mb |
| 20260502151603 | 78 | 0 | 0.0 | 0.0 | 0.00 | 0.00 | 0.00 | 11 | 1012.5 |
| 20260502123056 | 64 | 0 | 0.0 | 0.0 | 0.00 | 0.00 | 0.00 | 23 | 1011.4 |
| 20260502121552 | 65 | 0 | 0.0 | 0.0 | 0.00 | 0.00 | 0.00 | 18 | 1011.1 |
| 20260502114558 | 70 | 0 | 0.0 | 0.0 | 0.00 | 0.00 | 0.00 | 18 | 1010.8 |
| 20260502113054 | 73 | 0 | 0.0 | 0.0 | 0.00 | 0.00 | 0.00 | 12 | 1010.7 |
| 20260502111550 | 72 | 0 | 0.0 | 0.0 | 0.00 | 0.00 | 0.00 | 12 | 1010.7 |
| 20260502110057 | 73 | 0 | 0.0 | 0.0 | 0.00 | 0.00 | 0.00 | 13 | 1010.6 |
| 20260502104551 | 73 | 0 | 0.0 | 0.0 | 0.00 | 0.00 | 0.00 | 12 | 1010.7 |
| 20260502103058 | 73 | 0 | 0.0 | 0.0 | 0.00 | 0.00 | 0.00 | 12 | 1010.7 |
| 20260502101553 | 72 | 0 | 0.0 | 0.0 | 0.00 | 0.00 | 0.00 | 13 | 1010.7 |
| 20260502080105 | 73 | 0 | 0.0 | 0.0 | 0.00 | 0.00 | 0.00 | 22 | 1010.9 |
| 20260502070055 | 76 | 0 | 0.0 | 0.0 | 0.00 | 0.00 | 0.00 | 12 | 1010.7 |
| 20260502064601 | 78 | 0 | 0.0 | 0.0 | 0.00 | 0.00 | 0.00 | 12 | 1010.4 |
| 20260502063053 | 78 | 0 | 0.0 | 0.0 | 0.00 | 0.00 | 0.00 | 11 | 1010.3 |
| 20260502061555 | 79 | 0 | 0.0 | 0.0 | 0.00 | 0.00 | 0.00 | 11 | 1010.2 |
| 20260502060056 | 79 | 0 | 0.0 | 0.0 | 0.00 | 0.00 | 0.00 | 12 | 1010.0 |
| 20260502054557 | 80 | 0 | 0.0 | 0.0 | 0.00 | 0.00 | 0.00 | 13 | 1010.1 |
| 20260502053055 | 81 | 0 | 0.0 | 0.0 | 0.00 | 0.00 | 0.00 | 11 | 1010.1 |
| 20260502051553 | 83 | 0 | 0.0 | 0.0 | 0.00 | 0.00 | 0.00 | 10 | 1009.9 |
| 20260502050050 | 82 | 0 | 0.0 | 0.0 | 0.00 | 0.00 | 0.00 | 10 | 1009.9 |
| 20260502044550 | 82 | 0 | 0.0 | 0.0 | 0.00 | 0.00 | 0.00 | 10 | 1009.7 |
| 20260502043052 | 81 | 0 | 0.0 | 0.0 | 0.00 | 0.00 | 0.00 | 11 | 1009.4 |
| 20260502041553 | 81 | 0 | 0.0 | 0.0 | 0.00 | 0.00 | 0.00 | 11 | 1009.3 |
| 20260502040106 | 81 | 0 | 0.0 | 0.0 | 0.00 | 0.00 | 0.00 | 11 | 1009.0 |
| 20260502034557 | 81 | 0 | 0.0 | 0.0 | 0.00 | 0.00 | 0.00 | 13 | 1008.9 |
| 20260502033050 | 81 | 0 | 0.0 | 0.0 | 0.00 | 0.00 | 0.00 | 13 | 1008.5 |
| 20260502031557 | 82 | 0 | 0.0 | 0.0 | 0.00 | 0.00 | 0.00 | 13 | 1008.2 |
| 20260502030053 | 83 | 0 | 0.0 | 0.0 | 0.00 | 0.00 | 0.00 | 14 | 1008.0 |
| 20260502024547 | 84 | 0 | 0.0 | 0.0 | 0.00 | 0.00 | 0.00 | 13 | 1007.9 |
| 20260502023055 | 84 | 0 | 0.0 | 0.0 | 0.00 | 0.00 | 0.00 | 13 | 1007.7 |
| 20260502021553 | 85 | 0 | 0.0 | 0.0 | 0.00 | 0.00 | 0.00 | 14 | 1007.5 |
| 20260502020107 | 86 | 0 | 0.0 | 0.0 | 0.00 | 0.00 | 0.00 | 13 | 1007.4 |
| 20260502014554 | 87 | 0 | 0.0 | 0.0 | 0.00 | 0.00 | 0.00 | 13 | 1007.2 |
| 20260502013058 | 89 | 0 | 0.0 | 0.0 | 0.00 | 0.00 | 0.00 | 12 | 1007.1 |
| 20260502011553 | 90 | 0 | 0.0 | 0.0 | 0.00 | 0.00 | 0.00 | 12 | 1007.1 |
| 20260502010052 | 90 | 0 | 0.0 | 0.0 | 0.00 | 0.00 | 0.00 | 10 | 1007.0 |
| 20260502004558 | 91 | 0 | 0.0 | 0.0 | 0.00 | 0.00 | 0.00 | 10 | 1007.0 |
| 20260502003107 | 91 | 0 | 0.0 | 0.0 | 0.00 | 0.00 | 0.00 | 8 | 1007.0 |
| 20260502001631 | 92 | 0 | 0.0 | 0.0 | 0.00 | 0.00 | 0.00 | 9 | 1007.1 |
| 20260502000051 | 91 | 0 | 0.0 | 0.0 | 0.00 | 0.00 | 0.00 | 8 | 1007.3 |
| 20260501234550 | 91 | 0 | 0.0 | 0.0 | 0.00 | 0.00 | 0.00 | 9 | 1007.2 |
| 20260501233050 | 92 | 0 | 0.0 | 0.0 | 0.00 | 0.00 | 0.00 | 8 | 1007.3 |
| 20260501231550 | 92 | 0 | 0.0 | 0.0 | 0.00 | 0.00 | 0.00 | 8 | 1007.3 |
| 20260501230049 | 92 | 0 | 0.0 | 0.0 | 0.00 | 0.00 | 0.00 | 9 | 1007.3 |
| 20260501224559 | 92 | 0 | 0.0 | 0.0 | 0.00 | 0.00 | 0.00 | 9 | 1007.5 |
| 20260501223050 | 91 | 0 | 0.0 | 0.9 | 0.00 | 0.00 | 0.00 | 9 | 1007.6 |
| 20260501221550 | 91 | 0 | 0.0 | 0.0 | 0.00 | 0.00 | 0.00 | 9 | 1007.8 |
| 20260501220051 | 91 | 0 | 0.0 | 0.0 | 0.00 | 0.00 | 0.00 | 9 | 1007.8 |
| 20260501214553 | 92 | 0 | 0.0 | 0.0 | 0.00 | 0.00 | 0.00 | 9 | 1008.1 |
| 20260501213056 | 92 | 0 | 0.0 | 0.0 | 0.00 | 0.00 | 0.00 | 8 | 1008.3 |
| 20260501211553 | 91 | 0 | 0.0 | 0.0 | 0.00 | 0.00 | 0.00 | 9 | 1008.5 |
| 20260501210057 | 92 | 0 | 0.0 | 0.0 | 0.00 | 0.00 | 0.00 | 9 | 1008.7 |
| 20260501204550 | 91 | 0 | 0.0 | 0.0 | 0.00 | 0.00 | 0.00 | 9 | 1008.9 |
| 20260501201549 | 89 | 0 | 0.0 | 0.0 | 0.00 | 0.00 | 0.00 | 9 | 1009.3 |
| 20260501200049 | 89 | 0 | 0.0 | 0.0 | 0.00 | 0.00 | 0.00 | 9 | 1009.4 |
| 20260501194548 | 89 | 0 | 0.0 | 0.0 | 0.00 | 0.00 | 0.00 | 9 | 1009.7 |
| 20260501193048 | 89 | 0 | 0.0 | 0.0 | 0.00 | 0.00 | 0.00 | 9 | 1009.9 |
| 20260501191546 | 88 | 0 | 0.0 | 0.0 | 0.00 | 0.00 | 0.00 | 10 | 1010.0 |
| 20260501190057 | 88 | 0 | 0.0 | 0.0 | 0.00 | 0.00 | 0.00 | 10 | 1010.1 |
| 20260501184550 | 87 | 0 | 0.0 | 0.0 | 0.00 | 0.00 | 0.00 | 10 | 1010.1 |
| 20260501183050 | 87 | 0 | 0.0 | 0.0 | 0.00 | 0.00 | 0.00 | 10 | 1010.3 |
| 20260501181553 | 86 | 0 | 0.0 | 0.0 | 0.00 | 0.00 | 0.00 | 11 | 1010.4 |
| 20260501180053 | 85 | 0 | 0.0 | 0.0 | 0.00 | 0.00 | 0.00 | 10 | 1010.6 |
| 20260501174552 | 85 | 0 | 0.0 | 0.9 | 0.00 | 0.00 | 0.00 | 11 | 1010.6 |
| 20260501173102 | 85 | 0 | 0.0 | 0.0 | 0.00 | 0.00 | 0.00 | 11 | 1010.7 |
| 20260501171552 | 85 | 0 | 0.0 | 0.0 | 0.00 | 0.00 | 0.00 | 11 | 1010.8 |
| 20260501170051 | 84 | 0 | 0.0 | 0.0 | 0.00 | 0.00 | 0.00 | 12 | 1010.6 |
| 20260501164557 | 83 | 0 | 0.0 | 0.0 | 0.00 | 0.00 | 0.00 | 12 | 1010.6 |
| 20260501163046 | 83 | 0 | 0.0 | 0.0 | 0.00 | 0.00 | 0.00 | 12 | 1010.7 |
| 20260501161600 | 82 | 0 | 0.0 | 0.9 | 0.00 | 0.00 | 0.00 | 13 | 1010.5 |
| 20260501160051 | 82 | 0 | 0.0 | 0.0 | 0.00 | 0.00 | 0.00 | 14 | 1010.7 |
| 20260501154601 | 80 | 0 | 0.0 | 0.0 | 0.00 | 0.00 | 0.00 | 16 | 1010.6 |